This demonstration page uses our WeatherBlox Daily Observations layout. Learn more.

Left ArrowRight Arrow

Hourly Observations for August 18, 2018

Temp ( °F °C ) Dew Point ( °F °C ) Humidity (%) Winds ( mph kmh ) Pressure ( in mb ) Visibility ( mi km ) Precip ( " mm )
12:52 am 00:52 Clear 73 22.8 67 19.4 81 81 Calm 30.02 1017 10 16 0.00 0.00
1:52 am 01:52 Clear 72 22.2 67 19.4 84 84 NW 3 6 30.01 1016 10 16 0.00 0.00
2:52 am 02:52 Clear 71 21.7 67 19.4 87 87 Calm 30.00 1016 10 16 0.00 0.00
3:52 am 03:52 Clear 69 20.6 65 18.3 87 87 Calm 30.02 1017 10 16 0.00 0.00
4:52 am 04:52 Clear 68 20 65 18.3 90 90 NNW 3 6 30.01 1016 9 14 0.00 0.00
5:52 am 05:52 Clear 68 20 65 18.3 90 90 Calm 30.00 1016 10 16 0.00 0.00
6:52 am 06:52 Sunny 69 20.6 65 18.3 87 87 Calm 30.02 1017 10 16 0.00 0.00
7:52 am 07:52 Sunny 71 21.7 66 18.9 84 84 Calm 30.03 1017 10 16 0.00 0.00
8:52 am 08:52 Sunny 75 23.9 68 20 79 79 Calm 30.03 1017 10 16 0.00 0.00
9:52 am 09:52 Sunny 80 26.7 68 20 67 67 NNE 5 7 30.03 1017 10 16 0.00 0.00
10:52 am 10:52 Sunny 83 28.3 68 20 61 61 N 6 9 30.02 1017 10 16 0.00 0.00
11:52 am 11:52 Sunny 84 28.9 66 18.9 55 55 NE 8 13 30.01 1016 10 16 0.00 0.00
12:52 pm 12:52 Sunny 85 29.4 65 18.3 51 51 Calm 30.00 1016 10 16 0.00 0.00
1:52 pm 13:52 Partly Cloudy 87 30.6 64 17.8 46 46 NNE 6 9 29.98 1015 10 16 0.00 0.00
2:52 pm 14:52 Sunny 88 31.1 64 17.8 45 45 N 6 9 29.96 1015 10 16 0.00 0.00
3:52 pm 15:52 Sunny 89 31.7 64 17.8 43 43 NNW 5 7 29.95 1014 10 16 0.00 0.00
4:52 pm 16:52 Mostly Sunny 88 31.1 63 17.2 43 43 Calm 29.93 1014 10 16 0.00 0.00
5:52 pm 17:52 Sunny 87 30.6 64 17.8 46 46 NNE 8 13 29.92 1013 10 16 0.00 0.00
6:52 pm 18:52 Sunny 86 30 63 17.2 46 46 NNE 7 11 29.92 1013 10 16 0.00 0.00
7:52 pm 19:52 Sunny 84 28.9 64 17.8 51 51 ENE 6 9 29.92 1013 10 16 0.00 0.00
8:52 pm 20:52 Clear 81 27.2 64 17.8 57 57 ENE 6 9 29.92 1013 10 16 0.00 0.00
9:52 pm 21:52 Clear 78 25.6 66 18.9 67 67 E 7 11 29.93 1014 10 16 0.00 0.00
10:52 pm 22:52 Clear 75 23.9 66 18.9 74 74 ESE 8 13 29.93 1014 10 16 0.00 0.00
11:52 pm 23:52 Clear 74 23.3 66 18.9 76 76 ESE 7 11 29.94 1014 10 16 0.00 0.00

Powered by AerisWeather